Regional Weather Roundup
Issued by NWS Jackson, KY

Home | Current Version | Previous Version | Graphics & Text | Print | Product List | Glossary On
Versions: 1 2 3 4 5 6 7 8 9 10 11 12 13 14 15 16 17 18 19 20 21 22 23 24 25 26 27 28 29 30 31 32 33 34 35 36 37 38 39 40 41 42 43 44 45 46 47 48 49 50
000
ASUS43 KJKL 051910
RWRJKL

EAST KENTUCKY HOURLY WEATHER ROUNDUP
NATIONAL WEATHER SERVICE JACKSON KY
300 PM EDT TUE MAY 05 2015

NOTE: "FAIR" INDICATES FEW OR NO CLOUDS BELOW 12,000 FEET WITH
NO SIGNIFICANT WEATHER AND/OR OBSTRUCTIONS TO VISIBILITY.

* THESE REPORTS ARE NOT UNDER NWS QUALITY CONTROL AND MAY NOT
  REPORT WEATHER SUCH AS PRECIPITATION AND FOG.

KYZ079-080-083-085-087-088-110-112-115-119-120-052000
...EASTERN KENTUCKY...

CITY           SKY/WX    TMP DP  RH WIND       PRES   REMARKS
JACKSON        MOSUNNY   80  51  36 CALM      30.28F
LONDON         SUNNY     82  47  29 E7        30.27F
SOMERSET*      SUNNY     79  52  38 W8        30.28F
MONTICELLO*    SUNNY     83  51  32 CALM      30.29F
MIDDLESBORO*   MOSUNNY   81  52  36 CALM      30.27F
HARLAN APT*    CLEAR     81  45  28 CALM      30.28F
HAZARD APT*    PTCLDY    82  50  32 S3        30.27F
PIKEVILLE APT* CLOUDY    79  52  38 N5        30.28F
BIG SANDY*     MOCLDY   N/A N/A N/A W6        30.27F
MOREHEAD APT*  PTCLDY    81  52  36 W8G16     30.29F
$$

KYZ035-036-041-042-044-050-067-078-099-052000
...CENTRAL KENTUCKY...

CITY           SKY/WX    TMP DP  RH WIND       PRES   REMARKS
MT STERLING*   MOSUNNY   81  54  39 W3        30.29F
FLEMING/MASON* MOSUNNY   82  55  39 SW10G17   30.27F
DANVILLE*      PTSUNNY   81  54  39 CALM      30.27F
RICHMOND*      MOSUNNY   81  52  36 NW8       30.27F
LEXINGTON      MOSUNNY   81  55  40 W7        30.27F
FRANKFORT      PTSUNNY   79  53  40 VRB6      30.24F
$$

KYZ091>093-OHZ055-061-077-WVZ005-015-034-035-042-052000
...SOUTHERN OHIO/WEST VIRGINIA...

CITY           SKY/WX    TMP DP  RH WIND       PRES   REMARKS
COVINGTON      MOSUNNY   81  53  37 SW8       30.24F
COLUMBUS       MOSUNNY   78  57  48 W7        30.23F
DAYTON         PTSUNNY   80  54  40 SW10      30.24F
WILMINGTON     CLOUDY    78  52  40 SW9G22    30.24F
HUNTINGTON     PTSUNNY   83  55  38 S3        30.24F
CHARLESTON     MOSUNNY   84  52  33 VRB5      30.24F
PINEVILLE*     SUNNY     83  51  32 MISG      30.32F
BECKLEY        CLOUDY    74  48  39 W7        30.32F
BLUEFIELD      MOSUNNY   76  46  34 SW7       30.34F
$$

VAZ002-007-008-TNZ017-027-036-066-071-052000
...SOUTHWEST VIRGINIA/EAST TENNESSEE...

CITY           SKY/WX    TMP DP  RH WIND       PRES   REMARKS
WISE*          PTSUNNY   73  45  35 CALM      30.35F
JONESVILLE*    CLEAR     81  48  32 SE7       30.29F
ABINGDON*      SUNNY     81  49  33 E3        30.31F
BRISTOL        MOSUNNY   82  49  31 E5        30.28F
KNOXVILLE      MOSUNNY   81  52  36 N5        30.26F
OAK RIDGE      SUNNY     83  51  33 VRB3      30.27F
CROSSVILLE     PTSUNNY   78  47  33 SE9       30.30F
NASHVILLE      MOSUNNY   85  51  31 SW8       30.24F
$$

...KEY TO REMARKS...
VSB - VISIBILITY IN MILES
WCI - WIND CHILL INDEX
HX  - HEAT INDEX

$$



USA.gov is the U.S. government's official web portal to all federal, state and local government web resources and services.